Location: Newark
(9.4667°S, 159.8167°E)
Time: 15:19:51
(UTC+00:00)

Vanguard 1 - Pass Details

Date: 16 November 2019
Orbit: 652 x 3831 km, 34.2° (Epoch: 05 December)

Event Time Altitude Azimuth Distance (km) Brightness Sun altitude
Rises 09:43:23 0° 304° (NW) 3,991 13.5 -32.8°
Reaches altitude 10° 09:45:34 10° 304° (WNW) 3,286 13.0 -33.2°
Maximum altitude 09:54:08 86° 215° (SW) 1,929 11.3 -35.1°
Drops below altitude 10° 10:10:52 10° 126° (SE) 5,984 13.8 -38.6°
Sets 10:16:29 0° 125° (SE) 7,401 14.4 -39.7°
